EHI
1 1 0 1 2 4 4 4 5 4 4 4 5 4 1 0 0 0 1 2 3 2 2 3 3 4 4 4 4 4 4 3 3 3 2 1 2 3 3 1 1 1 1
1 1 1 2 3 5 5 5 5 6 5 5 5 3 1 0 0 0 1 2 3 3 4 4 3 4 5 6 6 5 4 3 3 2 2 3 4 3 2 1 1 1 0
1 2 3 3 4 6 6 6 8 10 9 7 5 4 2 1 0 1 1 3 3 4 4 4 3 4 5 6 6 6 6 4 3 1 2 4 5 4 2 1 1 1 0
1 3 4 4 4 5 7 8 10 12 11 9 8 6 4 1 1 2 3 4 4 4 4 3 3 3 4 4 6 7 7 5 3 2 3 4 5 5 3 2 2 2 1
2 4 5 7 6 6 8 10 13 14 13 11 12 11 8 4 2 3 5 6 6 5 4 3 3 3 3 3 5 6 6 5 4 4 4 5 5 5 4 3 3 2 2
3 4 8 10 10 9 10 14 18 20 18 15 15 15 14 10 7 7 9 8 7 6 5 4 4 3 3 3 4 5 5 5 5 5 4 4 4 4 4 3 3 2 2
4 6 11 14 15 15 15 18 21 23 22 19 17 17 18 16 13 11 11 9 7 7 6 5 5 4 3 3 4 4 4 5 6 5 4 4 5 4 4 4 3 2 1
5 8 12 15 17 18 19 20 21 22 21 20 19 19 18 15 13 12 11 9 7 7 7 6 6 5 4 3 4 5 5 5 6 6 5 6 7 7 6 5 4 2 1
6 7 9 13 16 19 20 19 20 21 20 20 20 20 19 16 13 12 11 10 8 7 7 6 6 5 4 4 6 6 7 7 7 7 8 9 9 9 8 7 5 3 2
6 6 6 9 13 17 18 18 19 20 19 19 19 19 20 20 18 14 11 10 9 8 7 6 5 4 5 6 8 8 9 10 9 9 10 11 11 10 10 9 7 4 3
4 5 6 8 10 12 14 15 16 17 16 17 17 18 21 22 20 16 12 11 9 8 8 6 4 4 5 8 10 9 9 9 9 9 11 11 11 10 10 9 7 6 5
2 5 7 8 9 10 12 12 12 11 12 15 17 19 20 21 19 16 14 13 10 8 8 7 6 5 6 9 10 9 7 7 8 9 11 12 13 12 11 9 8 6 6
2 4 8 11 12 13 12 12 10 10 11 14 17 19 21 21 18 16 17 17 14 12 11 10 8 8 8 9 10 8 5 5 7 10 12 13 14 15 14 11 9 8 8
5 6 10 13 16 16 16 15 14 15 16 18 19 20 22 21 19 18 19 19 17 14 12 12 12 11 11 10 9 8 6 5 7 11 12 12 12 13 14 12 11 11 9
9 10 12 16 19 20 20 19 21 23 24 23 22 22 22 22 22 22 20 19 17 14 13 14 14 13 12 11 10 10 9 8 8 10 11 10 9 9 9 9 10 10 9
11 11 14 18 21 23 24 23 25 28 28 25 23 22 24 25 25 23 20 19 17 16 17 17 15 14 13 11 10 10 12 12 11 12 11 9 8 9 7 5 6 6 7
11 11 14 18 21 24 25 24 24 26 27 26 24 24 25 26 25 22 20 20 20 21 22 21 19 17 14 10 6 7 11 15 15 15 14 11 10 11 11 8 6 6 7
8 11 15 18 22 24 25 24 22 23 25 25 25 25 25 24 23 23 21 23 25 25 25 23 22 20 15 8 3 3 9 16 18 17 16 14 12 12 12 11 11 11 11
8 10 14 19 23 25 26 25 22 22 23 23 23 24 24 22 22 24 24 26 28 27 24 23 22 22 17 8 2 2 7 13 16 16 16 15 12 9 9 12 15 15 14
8 9 13 20 25 25 26 26 23 22 21 20 21 22 22 21 23 27 29 30 30 26 23 21 21 21 17 7 1 2 6 11 13 15 15 12 8 5 5 9 14 15 14
11 12 15 20 24 25 26 25 25 25 23 21 21 22 20 19 23 29 33 33 29 25 20 19 18 19 15 7 1 2 5 8 10 11 12 9 5 2 2 5 9 10 9
16 18 19 21 24 26 25 26 27 28 27 26 26 26 23 19 21 27 32 32 28 23 19 17 17 16 13 7 1 1 2 5 8 10 9 6 3 1 0 1 4 4 3
20 22 23 23 25 25 24 25 28 30 31 32 32 29 25 22 21 24 28 28 26 22 19 17 16 15 13 9 4 1 0 2 5 8 7 4 1 0 0 0 1 1 2
21 23 22 21 23 24 24 25 28 32 35 37 35 31 26 25 25 25 25 25 24 22 19 16 14 14 13 11 8 5 3 2 4 7 7 5 3 2 2 3 3 3 4
19 19 18 18 21 24 26 25 27 32 37 39 36 30 27 27 26 24 21 19 18 17 14 12 12 11 10 9 8 7 4 4 4 6 8 9 7 6 6 6 7 7 7
17 17 16 16 20 24 26 25 25 30 36 38 34 28 26 26 25 22 18 13 12 10 9 9 9 8 6 4 5 5 4 3 3 6 9 12 11 9 8 8 9 8 8
Wind_Speed
9 10 10 10 9 9 8 7 6 6 4 3 3 3 2 2 1 1 2 1 1 1 0 1 2 0 1 1 2 2 3 2 2 1 2 3 2 2 2 1 1 2 2
10 10 11 11 11 10 9 8 7 6 6 4 3 2 2 2 1 1 1 1 1 1 2 1 1 1 1 1 1 1 1 2 1 0 1 2 3 2 2 1 1 1 1
11 11 11 12 12 11 11 8 8 7 6 5 4 3 3 2 2 2 2 1 1 1 0 1 0 1 1 1 1 1 1 1 1 1 1 0 1 1 2 1 1 1 1
11 11 12 13 12 12 11 10 9 8 7 7 5 5 3 3 2 2 2 2 2 1 1 1 1 1 1 1 2 2 1 1 1 1 0 2 2 0 1 2 2 2 1
11 12 12 12 12 12 11 11 10 9 8 7 6 6 4 3 3 3 3 2 2 2 2 2 2 2 1 1 0 1 1 1 1 1 1 1 1 2 1 0 1 1 1
11 11 11 11 10 11 11 11 11 9 9 8 7 7 5 4 3 3 3 3 3 2 3 3 2 2 1 2 2 2 2 1 1 1 1 1 1 1 1 1 1 0 1
10 11 12 12 11 11 11 11 11 10 9 9 8 8 7 6 5 4 3 3 2 2 3 3 3 2 2 2 2 2 1 2 2 2 2 1 2 1 1 2 1 1 1
10 11 12 12 11 11 11 11 11 10 10 9 8 7 7 6 4 4 3 3 2 1 2 3 3 3 3 3 3 2 3 2 2 2 2 2 2 2 2 2 2 2 1
10 11 11 11 11 11 11 11 11 10 10 9 8 8 7 6 5 4 5 3 3 2 3 4 4 4 3 3 3 2 2 2 3 3 3 3 2 2 2 2 3 3 2
10 10 10 11 11 11 10 10 10 10 10 10 9 7 7 6 6 5 4 4 3 3 3 4 4 4 4 4 4 4 3 3 2 2 1 2 2 2 2 2 2 2 3
9 9 9 10 10 10 10 10 10 10 9 9 8 7 7 7 6 6 5 5 4 4 5 5 4 4 4 4 4 4 3 4 3 3 3 3 3 2 2 2 2 2 3
8 9 9 10 10 10 10 10 10 10 9 9 8 8 7 6 6 6 5 5 5 5 5 5 5 5 5 5 5 5 4 4 4 4 3 3 2 3 3 3 3 2 3
6 8 9 9 9 9 9 9 9 9 9 9 8 8 7 7 6 5 5 5 5 5 5 5 5 5 4 5 5 5 5 4 4 4 4 4 3 4 3 4 4 3 3
6 7 7 8 8 8 7 8 8 8 8 8 8 7 7 6 6 5 5 5 5 5 5 5 5 5 5 5 5 5 5 5 4 4 4 4 4 4 4 4 4 4 4
5 6 7 8 8 8 8 8 7 7 8 8 7 7 6 6 5 5 5 5 5 5 5 5 5 5 5 5 5 6 6 5 5 5 5 4 3 2 3 3 3 4 4
5 6 7 8 8 8 8 8 7 7 7 7 7 6 6 6 6 6 5 5 5 5 5 5 5 6 4 2 2 5 5 5 5 5 5 5 5 5 5 4 4 5 5
4 5 6 7 7 8 8 8 8 7 7 7 7 7 7 7 6 6 5 6 5 5 5 5 5 5 3 3 4 6 6 5 5 5 5 5 3 5 5 6 8 7 7
4 4 5 6 7 7 7 7 8 8 8 8 7 7 7 7 7 7 6 6 5 5 5 5 6 5 4 5 5 6 7 6 6 5 5 5 4 4 5 6 6 6 6
3 3 4 5 6 7 8 8 8 8 8 8 7 7 7 7 7 7 7 6 5 6 6 6 6 6 4 5 6 7 6 6 6 6 5 6 5 3 4 6 6 6 5
2 2 3 4 5 6 7 8 8 8 8 7 7 6 6 7 7 7 6 5 5 6 6 5 6 6 5 6 6 7 6 6 5 5 6 5 5 4 4 6 6 6 6
2 1 2 3 4 6 7 8 7 7 6 6 6 6 6 6 6 6 6 6 6 5 5 5 6 6 6 7 8 8 6 5 6 5 5 4 5 5 6 7 6 6 6
2 1 1 2 3 5 6 7 6 5 5 5 5 6 6 6 5 6 6 7 6 7 7 6 6 6 6 6 7 8 8 6 6 6 5 2 5 5 7 7 5 5 7
2 2 1 1 2 4 5 6 5 4 5 5 6 6 6 6 5 6 7 7 7 7 6 6 6 5 5 5 7 8 8 8 7 5 3 2 5 7 7 8 8 7 6
2 1 1 1 2 3 3 3 3 4 5 6 6 6 6 6 5 5 6 6 6 6 6 6 5 5 4 4 4 5 6 7 8 6 4 5 7 7 5 6 7 7 5
2 1 1 1 1 2 2 3 3 4 4 5 4 5 5 4 4 4 3 5 4 3 4 5 5 4 5 2 1 3 4 5 4 4 5 5 5 5 5 4 4 4 4
2 1 1 2 1 1 1 2 2 3 4 4 4 4 4 3 4 4 3 0 2 2 3 3 4 3 1 2 2 3 3 3 3 5 5 5 5 5 5 5 4 5 4
Wind_Direction
178 174 175 175 172 172 173 176 179 175 181 174 176 172 158 163 140 122 101 114 91 114 140 69 115 121 87 85 119 130 136 139 122 125 110 108 107 91 122 106 109 132 143
177 179 180 180 180 179 180 181 184 179 184 176 182 179 179 169 149 135 126 156 135 150 145 134 150 118 110 114 123 142 151 132 137 244 167 135 126 104 100 122 140 134 160
186 183 185 186 186 185 184 183 182 182 187 184 182 173 177 189 172 171 161 164 169 149 55 110 70 123 187 138 162 172 182 147 147 352 318 315 90 90 110 114 121 141 161
189 186 187 187 189 189 184 182 182 184 186 191 193 192 191 190 181 186 150 155 160 169 176 173 173 224 211 148 196 151 197 209 193 148 348 349 20 282 140 145 133 156 178
192 188 187 186 189 188 186 183 182 185 184 192 192 200 203 197 184 176 154 179 158 178 188 182 188 190 203 160 180 138 242 234 258 235 164 143 178 235 239 123 125 148 167
190 188 185 180 184 185 186 183 181 186 186 191 195 204 203 201 192 192 182 191 174 176 182 185 189 193 190 172 186 195 195 247 280 275 243 215 216 225 211 223 227 170 122
185 185 181 179 181 183 185 184 182 186 187 192 196 199 201 200 201 208 195 214 198 181 182 191 189 193 189 190 196 194 216 208 217 238 247 249 251 241 233 241 254 251 202
184 183 181 179 180 181 183 183 183 186 187 191 194 198 203 208 203 206 221 210 229 200 176 198 196 194 196 196 191 209 202 200 220 234 254 254 250 254 247 250 248 238 219
185 183 179 179 179 180 183 184 182 185 187 189 189 196 204 214 212 204 217 218 214 204 189 201 202 201 198 202 202 206 211 206 220 222 216 238 244 243 249 249 256 262 261
187 185 183 181 180 180 180 183 183 185 188 190 195 192 199 205 210 219 219 224 219 215 205 210 209 206 202 200 207 203 198 215 223 243 279 266 252 246 241 238 248 261 268
191 186 187 184 183 179 177 182 183 183 186 191 191 194 196 200 205 212 214 215 216 209 209 209 206 205 206 205 210 219 209 218 229 231 220 235 262 263 252 235 233 239 248
193 188 186 183 186 183 179 179 182 184 185 185 189 192 193 200 205 206 209 210 210 214 210 209 209 209 205 210 215 224 220 224 230 237 239 239 226 235 264 260 248 240 247
198 190 186 186 188 186 184 179 183 186 185 182 190 192 194 195 202 204 203 204 206 210 210 210 212 215 211 214 220 227 230 231 235 238 239 240 236 238 242 251 252 246 237
190 188 185 184 185 186 185 184 185 183 184 187 192 192 197 195 195 195 198 201 202 206 208 212 216 217 216 218 221 223 229 234 236 240 243 244 239 240 240 238 246 253 254
192 190 190 186 184 184 184 188 187 182 185 189 195 192 195 192 195 194 199 203 208 209 206 214 216 219 220 218 219 223 223 229 234 237 240 243 248 279 275 275 252 246 253
201 196 193 189 189 188 190 187 188 185 187 192 193 187 190 192 197 200 204 205 209 211 209 215 219 225 227 159 223 251 236 234 238 241 241 233 221 218 227 261 281 286 267
219 210 199 196 194 195 192 188 184 181 184 191 194 188 191 196 202 206 205 208 209 207 211 215 218 223 210 182 208 240 248 240 242 242 244 243 222 228 229 218 224 239 252
240 223 209 204 197 190 185 188 182 182 187 191 197 196 197 198 201 207 209 210 209 209 213 216 221 221 205 186 205 229 238 241 239 236 237 244 242 244 252 246 241 239 235
263 240 219 206 194 187 180 182 185 186 192 195 197 200 201 201 204 208 210 210 211 213 218 218 221 224 207 184 202 228 234 235 240 240 239 244 241 232 254 251 247 248 241
287 257 222 204 189 184 181 187 190 192 198 200 200 199 202 206 207 208 210 209 212 220 226 220 223 225 221 189 200 226 242 236 238 233 230 224 240 214 228 245 248 250 255
297 279 233 202 192 187 186 196 198 201 206 205 202 201 206 213 211 207 208 209 216 220 229 228 229 226 225 195 196 214 246 250 245 242 237 215 183 206 222 246 255 260 270
303 280 239 207 195 193 192 198 204 203 201 203 203 205 212 221 210 208 209 213 215 216 220 222 230 225 215 211 198 205 227 264 257 256 253 216 172 208 228 237 251 250 256
306 287 236 194 198 203 204 206 201 195 193 200 206 210 213 221 214 213 210 211 213 225 224 223 228 228 219 201 191 204 220 236 251 263 296 268 210 220 226 227 229 231 240
310 305 296 205 197 200 211 213 198 194 196 203 207 209 211 215 211 216 215 219 217 223 229 234 234 231 225 221 204 209 215 222 236 250 237 224 221 233 243 220 220 230 241
316 318 305 273 220 188 206 211 196 196 200 202 206 213 216 218 213 220 230 234 227 233 242 247 244 240 236 221 233 240 232 238 244 250 244 236 223 222 225 227 227 232 231
321 336 333 317 313 231 211 202 196 200 204 204 207 216 221 212 219 213 209 77 232 178 210 253 267 261 261 162 198 235 260 260 244 248 244 240 237 236 239 238 229 226 233